Location: Newark
(55.7083°N, 13.1992°E)
Time: 05:50:45
(UTC+00:00)

N. Korean satellite - Pass Details

Date: 31 January 2020
Orbit: 456 x 505 km, 97.2° (Epoch: 20 February)

Event Time Altitude Azimuth Distance (km) Brightness Sun altitude
Rises 06:13:23 0° 6° (N) 2,552 10.1 -7.2°
Reaches altitude 10° 06:15:41 10° 352° (N) 1,677 9.0 -6.9°
Maximum altitude 06:18:38 24° 297° (WNW) 1,045 7.7 -6.5°
Drops below altitude 10° 06:21:37 10° 242° (WSW) 1,689 8.9 -6.2°
Sets 06:23:57 0° 229° (SW) 2,576 10.0 -5.8°
